Theta_e
296 296 297 297 296 297 296 297 297 296 295 293 294 294 293 290 287 287 286 285 284 284 284 284 284 285 287 289 291 293 297 299 300 302 301 300 301 301 301 302 303 303 307 309
295 297 296 296 297 297 298 298 297 295 294 293 293 294 290 290 288 287 286 284 284 283 283 283 284 285 286 288 289 291 294 296 297 298 300 304 304 303 303 303 304 311 314 319
297 297 297 297 297 298 297 297 296 296 294 293 294 292 290 290 289 287 285 283 283 282 283 283 283 284 285 286 287 289 292 293 294 295 298 302 303 305 305 306 309 310 316 318
297 297 297 297 298 295 292 295 294 294 291 295 290 294 290 289 288 286 284 282 281 282 282 282 282 283 284 285 286 287 290 291 292 293 296 299 301 303 305 308 308 309 311 315
298 297 297 293 297 295 293 293 292 292 290 290 295 292 290 287 288 285 282 281 280 281 282 282 282 282 283 284 285 286 288 290 290 291 293 296 299 303 307 307 308 308 309 313
296 295 295 295 295 294 292 290 293 289 292 288 290 294 293 287 283 282 280 279 279 281 281 281 281 282 282 283 284 285 286 287 288 289 290 292 294 297 299 298 303 302 302 304
294 296 295 293 293 293 290 288 289 293 290 291 293 294 292 282 282 279 278 277 278 280 280 280 281 281 281 282 283 284 284 285 285 286 286 288 290 292 291 293 293 294 294 295
291 294 293 292 289 288 292 285 289 294 291 292 292 294 294 282 278 274 275 274 279 279 279 280 280 280 280 281 282 282 283 283 284 284 284 285 287 288 288 289 290 289 289 290
288 292 293 292 291 290 292 291 290 284 285 289 292 293 286 285 284 279 275 279 278 278 279 279 279 279 280 280 281 281 281 282 282 282 282 282 283 284 285 286 287 287 288 287
288 293 294 293 291 291 292 291 290 286 289 289 291 294 295 286 283 280 276 278 278 278 278 278 278 278 279 279 280 280 280 280 280 280 281 280 281 282 283 284 283 284 285 286
288 289 293 292 284 287 290 290 290 288 289 289 291 292 284 283 280 278 277 278 277 278 277 278 277 277 277 278 279 280 280 280 280 279 279 279 279 280 281 280 280 280 282 283
291 286 289 289 281 286 288 283 284 288 289 289 290 289 279 280 278 278 279 278 278 278 277 276 276 276 277 277 278 279 279 279 279 279 279 278 278 279 279 279 278 279 280 281
292 293 292 295 291 290 286 287 286 284 284 282 288 295 277 276 277 277 277 277 277 278 276 274 274 275 275 277 278 278 279 279 279 279 278 278 278 277 277 278 278 278 279 279
293 288 291 297 293 280 286 285 288 287 280 283 284 287 287 281 276 275 275 275 276 275 272 272 272 273 275 276 277 277 278 278 279 278 278 278 278 278 277 277 277 276 276 277
291 289 284 284 275 277 281 286 286 286 281 289 285 280 286 279 273 271 272 274 274 273 272 271 272 273 276 276 277 277 277 277 278 278 278 277 277 277 277 277 277 276 276 276
289 290 287 290 276 278 288 288 286 284 277 279 273 281 274 270 265 269 270 271 271 271 271 272 273 274 276 276 277 277 277 277 277 277 277 277 277 277 277 276 276 276 276 276
289 289 286 291 283 286 286 282 281 278 274 283 289 287 266 276 276 270 269 268 269 270 269 270 271 274 276 276 277 276 277 277 276 276 276 276 276 276 276 276 276 276 276 275
288 284 286 290 283 291 287 269 276 284 281 277 277 273 272 272 269 267 266 267 268 268 270 271 272 274 275 276 276 276 276 276 276 276 276 276 276 276 277 276 276 276 276 276
286 287 285 289 291 293 289 281 286 291 294 280 281 271 268 266 268 275 263 262 268 268 269 271 272 273 275 276 276 276 276 276 276 275 276 276 276 276 277 277 276 276 276 276
292 287 286 292 291 293 289 280 279 280 296 279 280 277 275 280 281 279 265 262 266 271 272 273 273 274 275 276 276 276 276 275 276 276 276 276 277 277 276 276 276 276 276 276
294 293 289 291 291 291 285 284 285 294 298 278 280 278 281 282 279 269 268 265 272 273 273 273 273 274 275 275 276 275 275 275 275 276 276 276 276 277 276 276 276 276 276 275
290 290 288 290 293 295 284 287 293 289 274 276 277 279 281 271 264 266 267 268 270 271 272 273 273 273 274 275 275 275 275 275 275 275 275 275 275 275 275 275 275 275 275 275
293 292 291 291 293 286 286 286 280 274 281 276 281 278 282 275 272 271 272 271 272 273 273 273 273 273 274 275 275 276 275 275 275 275 275 275 275 275 275 276 276 275 274 274
290 289 291 292 291 289 286 284 276 277 282 282 284 283 281 279 275 274 273 272 273 273 273 273 273 273 274 275 275 275 275 275 276 276 276 275 275 276 276 276 275 274 273 273
293 290 292 292 293 286 288 286 290 281 279 282 282 282 282 278 275 275 275 274 273 273 273 273 273 273 274 275 275 275 276 276 275 275 276 276 276 275 275 274 274 274 273 273
290 294 296 298 294 293 293 290 287 286 284 283 283 281 281 279 277 275 275 275 274 273 274 273 273 274 275 275 275 275 275 276 276 276 276 275 275 275 274 274 273 273 273 273
Wind_Speed
3 4 2 1 4 6 6 9 17 15 9 3 8 8 7 2 2 8 10 12 12 13 17 21 24 24 22 23 21 20 17 15 15 10 5 7 10 12 14 14 12 12 12 13
3 2 2 1 5 5 9 15 11 8 2 5 9 12 5 3 2 3 7 11 13 15 15 20 23 23 23 22 23 19 18 16 14 13 11 8 8 13 15 13 12 10 11 12
4 1 1 1 3 4 9 7 6 13 10 7 5 7 1 2 4 6 9 10 12 13 15 16 21 22 23 22 25 21 18 17 15 15 14 11 10 10 12 9 10 10 11 12
4 1 2 3 3 4 6 5 11 14 2 3 2 4 2 2 3 7 12 12 13 14 13 14 20 23 23 23 22 20 17 15 15 13 12 10 9 8 6 9 7 11 11 11
2 1 2 2 2 4 10 16 8 4 3 2 2 1 4 2 3 12 14 14 14 14 13 14 18 22 21 21 21 19 17 15 16 14 11 10 9 9 8 6 6 9 7 4
4 1 3 3 4 3 11 4 1 3 1 3 3 2 4 2 3 7 12 13 14 15 14 15 20 21 21 22 22 21 19 17 17 15 12 10 8 7 6 6 5 7 6 3
5 2 2 3 5 2 7 5 4 6 4 4 2 3 7 4 5 3 10 13 12 13 14 14 15 21 24 25 25 23 20 18 18 16 14 12 8 8 8 9 9 8 9 10
4 6 2 3 4 3 4 2 4 5 3 6 4 5 4 5 5 5 5 8 10 12 12 13 16 20 21 23 24 23 21 19 18 15 14 12 11 12 14 14 14 15 16 15
3 5 2 3 2 4 3 4 2 2 2 3 3 4 3 4 5 5 8 10 9 11 11 12 17 18 20 21 22 21 20 18 17 15 14 15 16 17 19 20 19 20 21 22
4 3 2 3 2 1 1 4 1 2 4 5 6 5 3 3 9 12 11 9 9 10 11 11 14 17 18 18 18 18 18 19 18 17 16 17 20 24 25 25 27 25 25 27
4 3 2 3 1 5 1 1 1 2 3 3 4 6 4 4 4 8 9 10 8 9 10 10 13 14 16 18 19 18 20 20 20 20 19 22 24 28 32 33 32 31 34 36
5 4 3 6 4 2 2 5 3 3 4 3 2 7 4 5 4 3 9 11 8 8 8 8 11 13 16 18 19 18 20 20 20 21 23 25 28 32 37 37 34 34 43 43
5 1 4 5 2 1 2 3 3 1 3 4 3 6 1 1 2 5 6 8 9 8 8 7 10 12 16 17 19 18 21 20 21 24 25 28 29 32 35 43 37 41 45 46
5 2 6 6 6 3 2 4 5 3 3 3 6 9 7 7 6 6 6 7 6 6 6 5 6 11 15 16 16 19 19 20 21 25 28 31 30 31 34 36 42 40 41 46
3 3 2 5 3 2 4 7 5 8 5 5 4 5 12 7 4 3 3 4 5 6 7 6 6 8 13 14 17 20 22 21 20 21 25 27 30 33 33 34 38 34 35 43
1 1 1 4 1 2 5 9 8 6 3 8 2 8 5 4 3 2 1 4 3 3 5 6 6 10 12 13 15 19 20 21 22 24 25 25 30 31 31 31 36 35 34 36
4 3 1 5 2 3 6 8 7 3 4 5 3 6 1 5 7 3 4 2 3 4 2 3 5 10 12 13 12 17 17 18 20 23 19 23 27 29 30 31 29 30 30 30
5 4 2 4 4 4 6 2 3 6 7 8 3 4 4 4 5 6 5 4 3 2 2 3 6 8 10 11 12 13 12 16 18 18 20 23 25 29 31 30 29 30 30 27
2 4 1 1 2 7 2 5 7 6 6 10 8 3 3 3 0 5 3 5 4 3 2 3 5 4 5 9 11 14 16 18 19 19 22 22 24 29 29 29 26 25 26 26
5 5 3 2 2 5 7 4 5 3 4 10 8 8 9 6 2 4 5 3 4 6 4 3 1 1 4 8 11 14 16 17 19 18 19 20 22 25 25 23 23 23 24 25
3 3 4 3 4 9 5 5 5 5 6 8 10 8 11 6 4 2 8 3 7 8 8 7 7 7 8 10 14 16 17 17 16 17 17 17 18 19 18 18 18 18 19 18
7 8 4 3 3 7 7 5 7 6 3 5 7 10 8 5 4 4 5 7 12 12 11 12 13 13 12 13 14 14 15 14 14 15 15 15 14 15 14 13 14 13 12 13
2 6 5 9 6 3 12 4 4 4 5 7 8 9 13 9 8 10 8 9 13 17 17 17 19 16 15 15 14 15 15 15 14 14 13 12 11 11 10 9 9 8 7 7
5 4 3 3 3 10 10 8 3 6 4 5 7 13 15 11 12 12 9 9 14 19 21 21 19 18 17 17 15 13 15 14 13 11 11 10 9 9 7 6 5 6 7 7
3 5 5 6 9 3 9 12 11 6 2 6 7 10 15 13 15 14 13 13 19 20 22 25 25 25 23 20 18 16 15 15 14 12 10 9 8 8 8 7 6 6 5 4
6 8 6 6 6 4 5 3 12 12 11 11 14 10 11 14 17 15 13 21 23 23 27 28 29 26 24 23 21 19 18 16 15 13 13 12 11 11 11 10 9 8 6 8
Wind_Direction
2 62 309 307 199 230 262 265 272 277 271 276 255 266 261 240 28 2 2 344 335 339 334 338 335 330 334 340 340 339 344 346 349 350 315 260 251 256 263 266 277 291 278 252
16 211 189 164 256 274 282 281 281 279 223 297 279 277 219 196 121 32 4 338 335 337 344 342 338 333 342 339 341 343 344 344 344 343 318 299 280 274 283 283 289 291 262 252
183 187 74 114 283 332 305 246 302 293 319 274 282 288 298 212 163 22 12 346 341 339 339 339 339 335 342 346 343 342 341 340 339 336 331 310 291 270 268 268 292 287 272 257
229 346 27 329 282 84 309 202 314 300 10 293 97 287 271 174 263 13 351 351 344 340 341 340 340 340 344 345 343 345 347 343 341 339 335 319 293 284 272 300 300 299 296 270
253 5 41 333 216 122 249 326 302 288 168 24 200 33 266 25 334 334 338 342 340 340 341 341 343 340 342 347 346 346 351 351 350 347 343 334 316 304 284 280 280 294 300 269
269 76 136 245 308 180 310 348 263 37 99 13 247 133 269 213 226 310 328 337 335 340 345 348 349 348 350 355 355 357 0 359 360 360 359 359 352 351 359 355 1 345 358 44
337 139 91 36 345 52 8 357 340 355 7 240 240 237 261 198 220 240 319 324 325 343 346 351 353 354 356 356 359 2 3 4 4 8 13 15 19 44 47 45 41 40 44 62
79 325 56 2 130 194 343 102 130 270 315 294 298 240 284 200 221 237 285 285 334 346 348 350 354 356 356 357 359 1 5 8 12 15 21 32 53 65 69 73 74 72 71 78
104 285 123 91 107 115 299 44 199 106 228 303 249 260 160 230 271 308 327 337 338 344 346 349 355 357 1 1 3 4 8 14 22 27 33 45 64 73 82 87 88 85 86 86
196 348 149 132 59 19 138 153 78 40 11 311 297 287 260 321 337 328 330 331 337 340 349 356 360 1 7 8 8 14 22 28 35 45 51 57 71 81 85 90 86 89 93 95
132 124 256 74 180 179 335 329 101 126 150 209 305 280 180 196 263 305 315 333 330 339 350 358 1 5 8 20 20 20 30 36 43 53 60 68 71 85 86 83 84 85 93 94
183 139 270 220 244 215 138 187 160 129 249 227 238 276 185 172 234 295 333 334 340 355 349 357 354 8 19 18 24 24 34 42 52 62 65 68 75 82 84 84 84 88 89 90
186 215 352 349 13 84 202 194 196 140 59 215 160 279 166 108 44 29 2 335 336 359 359 351 353 3 17 17 25 29 42 49 61 69 71 71 72 78 82 87 86 87 93 93
120 154 181 200 215 134 293 213 188 181 126 194 227 289 301 342 8 353 16 336 336 355 350 343 353 7 26 33 35 37 45 53 65 76 78 76 75 80 82 87 89 86 92 96
114 221 162 262 191 142 225 238 195 202 226 179 272 245 299 309 298 281 300 336 360 2 353 345 346 2 31 34 43 52 51 58 64 71 76 78 82 82 83 84 91 88 85 90
75 267 186 282 95 193 266 250 225 228 243 272 298 283 220 289 275 53 292 17 336 22 352 338 349 12 23 35 51 62 61 62 70 72 76 85 86 85 82 82 86 89 88 92
141 142 76 274 320 317 323 222 184 203 227 163 175 228 19 336 348 346 331 347 320 322 311 341 359 11 27 37 57 67 78 84 80 84 82 87 93 93 94 94 92 92 93 96
139 113 124 275 3 8 244 206 171 209 222 207 294 234 183 190 260 264 204 215 272 255 301 341 32 47 55 71 79 85 75 81 83 84 88 96 98 100 104 103 101 103 102 96
117 120 117 114 249 290 357 222 184 169 280 183 187 188 176 220 250 311 231 196 208 223 289 324 358 43 91 105 112 119 116 113 108 100 106 109 110 112 108 102 103 107 103 99
107 95 116 166 142 220 235 241 183 143 312 180 161 173 156 160 94 245 205 213 257 272 294 312 9 93 130 129 134 131 123 118 111 111 113 114 114 112 111 116 115 110 107 104
161 182 186 192 254 285 225 167 161 79 234 161 163 167 158 177 192 225 130 160 203 220 222 210 209 198 174 160 153 139 131 121 120 120 119 117 114 112 116 116 111 110 108 107
169 158 191 152 216 292 159 85 163 214 6 158 158 173 177 146 146 152 161 169 186 194 200 204 196 189 177 170 166 147 137 131 132 131 126 123 124 122 121 120 116 113 120 118
259 190 177 190 214 232 202 190 212 161 160 193 174 173 164 154 179 171 184 183 193 200 200 195 193 188 184 182 182 168 158 151 151 147 141 137 134 131 132 130 132 138 138 131
239 175 209 54 264 226 214 220 225 191 214 172 182 171 166 165 165 177 171 185 196 203 205 198 197 199 195 190 191 193 172 165 165 162 161 160 164 159 160 164 181 191 189 187
189 143 193 262 275 323 247 228 207 200 203 156 152 172 178 157 180 175 181 191 198 201 204 202 203 204 202 194 194 193 186 181 178 180 185 189 193 200 203 207 214 214 219 232
188 190 178 223 220 179 259 250 181 172 192 186 169 159 186 180 178 179 190 192 192 196 200 201 207 209 206 201 198 198 197 196 196 196 204 211 214 214 214 213 214 223 251 254